Printer-friendly version
Follow the MPC on Twitter Follow the MPC on Facebook The MPC blog
Minor Planet Center

MPEC 2010-A59 : 2010 AL30

The following Minor Planet Electronic Circular may be linked-to from your own Web pages, but must not otherwise be redistributed electronically.

A form allowing access to any MPEC is at the bottom of this page.


Read MPEC 2010-A58 Read MPEC 2010-A60


M.P.E.C. 2010-A59                                Issued 2010 Jan. 11, 15:43 UT

     The Minor Planet Electronic Circulars contain information on unusual
         minor planets and routine data on comets.  They are published
   on behalf of Commission 20 of the International Astronomical Union by the
          Minor Planet Center, Smithsonian Astrophysical Observatory,
                          Cambridge, MA 02138, U.S.A.

             Prepared using the Tamkin Foundation Computer Network

                              MPC@CFA.HARVARD.EDU
          URL http://www.cfa.harvard.edu/iau/mpc.html  ISSN 1523-6714

                                   2010 AL30

Observations:
     K10A30L* C2010 01 10.27372 07 56 21.69 +08 43 54.1          18.8   EA059704
     K10A30L  C2010 01 10.28653 07 56 17.04 +08 44 03.1          19.1   EA059704
     K10A30L  C2010 01 10.29935 07 56 12.26 +08 44 10.5          19.9   EA059704
     K10A30L  C2010 01 10.31215 07 56 07.52 +08 44 18.6          19.9   EA059704
     K10A30L  C2010 01 10.32497 07 56 02.62 +08 44 25.9          19.0   EA059704
     K10A30L  C2010 01 11.29321 07 51 24.76 +08 58 24.2          18.3 V EA059G96
     K10A30L  C2010 01 11.29368 07 51 24.44 +08 58 25.0          18.1 V EA059G96
     K10A30L  C2010 01 11.29412 07 51 24.15 +08 58 25.5          18.3 V EA059G96
     K10A30L  C2010 01 11.29455 07 51 23.86 +08 58 25.9          18.4 V EA059G96
     K10A30L  C2010 01 11.29498 07 51 23.58 +08 58 26.6          18.4 V EA059G96
     K10A30L  C2010 01 11.58340 07 48 59.75 +09 19 43.0          17.9 R EA059E16
     K10A30L  C2010 01 11.58801 07 48 55.85 +09 19 53.2          17.9 R EA059E16
     K10A30L  C2010 01 11.59153 07 48 52.86 +09 20 01.3          17.8 R EA059E16
     K10A30L  C2010 01 11.59622 07 48 48.85 +09 20 10.9          17.8 R EA059E16
     K10A30L  C2010 01 11.59769 07 48 47.58 +09 20 14.2          17.7 R EA059E16
     K10A30L  C2010 01 11.59891 07 48 46.52 +09 20 16.9          17.5 R EA059E16

Observer details:
704 Lincoln Laboratory ETS, New Mexico.  Observers M. Blythe, G. Spitz,
    R. Brungard, J. Paige, P. Festler.  1.0-m f/2.15 reflector + CCD.
E16 Grove Creek Observatory, Trunkey.  Observers P. Camilleri, E. Guido,
    M. Jaeger, E. Prosperi, G. Sostero, W. Vollmann.  Measurer G. Sostero.
    0.35-m f/7 reflector + CCD.
G96 Mt. Lemmon Survey.  Observer A. Boattini.  Measurers J. D. Ahern,
    E. C. Beshore, A. Boattini, G. J. Garradd, A. R. Gibbs, A. D. Grauer,
    R. E. Hill, R. A. Kowalski, S. M. Larson, R. H. McNaught.  1.5-m reflector
    + CCD.

Orbital elements:
2010 AL30                                                Earth MOID = 0.0000 AU
Epoch 2010 Jan. 4.0 TT = JDT 2455200.5                  MPC
M 281.40401              (2000.0)            P               Q
n   0.98349499     Peri.  104.60232     -0.78960713     +0.61038481
a   1.0014316      Node   113.05422     -0.58599752     -0.71971978
e   0.3055892      Incl.    3.91707     -0.18200958     -0.33080782
P   1.00           H   27.0           G   0.15           U   7
Residuals in seconds of arc
100110 704  0.2+  0.1-    100111 G96  0.0   0.1+    100111 E16  0.2+  0.3+
100110 704  0.3+  0.4+    100111 G96  0.1+  0.0     100111 E16  0.2+  0.1-
100110 704  0.3-  0.3-    100111 G96  0.1+  0.2-    100111 E16  0.0   0.1+
100110 704  0.5+  0.0     100111 G96  0.2+  0.1-    100111 E16  0.2-  0.2+
100110 704  0.2-  0.2-    100111 E16  0.2+  0.5-
100111 G96  0.1+  0.0     100111 E16  0.2+  0.2-

Ephemeris:
2010 AL30                a,e,i = 1.00, 0.31, 4                   q = 0.6954
Date    TT    R. A. (2000) Decl.     Delta      r     Elong.  Phase     V
2010 01 04    08 02.83   +08 33.1    0.0536   1.033   158.9    20.0    21.7
2010 01 06    08 02.11   +08 32.3    0.0422   1.023   160.7    18.5    21.1
2010 01 08    08 00.60   +08 34.8    0.0310   1.013   162.5    16.9    20.4
2010 01 10    07 57.06   +08 44.7    0.0198   1.003   164.6    15.1    19.3
2010 01 12    07 43.96   +09 26.4    0.00863  0.992   167.4    12.4    17.4

2010 01 12.5  07 32.83   +10 01.0    0.00586  0.989   168.4    11.6    16.5
2010 01 13.0  07 01.77   +11 29.9    0.00312  0.987   166.8    13.1    15.2
2010 01 13.5  02 43.97   +14 16.7    0.00088  0.984   109.9    70.0    14.2
2010 01 14.0  21 09.83   -04 15.7    0.00275  0.981    27.4   152.5
2010 01 14.5  20 29.22   -06 50.6    0.00548  0.978    18.1   161.8
2010 01 15.0  20 17.11   -07 34.4    0.00826  0.976    15.6   164.3
2010 01 15.5  20 10.98   -07 56.1    0.0110   0.973    14.3   165.6

2010 01 16    20 07.30   -08 09.1    0.0138   0.970    13.5   166.3
2010 01 18    20 00.78   -08 32.8    0.0250   0.959    12.1   167.6
2010 01 20    19 58.27   -08 43.6    0.0362   0.949    11.7   167.9
2010 01 22    19 56.95   -08 51.3    0.0475   0.938    11.8   167.6
2010 01 24    19 56.17   -08 58.3    0.0589   0.927    12.4   166.8

Sonia Keys                   (C) Copyright 2010 MPC           M.P.E.C. 2010-A59

Read MPEC 2010-A58 Read MPEC 2010-A60


MPEC number:

Enter an MPEC number in one of the following forms:

  • 1997-B01 (the full form)
  • J97B01 (the packed version of the full form)
  • B01 (the abbreviated form)

Valid HTML 4.01!